Hourly Weather Zhidachov

Today, 25 January, Monday

Time Temperature Precipitation Wind Pressure Humidity
00:00 +3°C° 0 mm 1 mps 726 mmHg 89%
01:00 +3°C° 0 mm 1 mps 726 mmHg 89%
02:00 +3°C° 0 mm 1 mps 726 mmHg 92%
03:00 +2°C° 0.2 mm 2 mps 725 mmHg 92%
04:00 +1°C° 0.2 mm 3 mps 725 mmHg 92%
05:00 0°C° 0.2 mm 4 mps 724 mmHg 92%
06:00 0°C° 0.3 mm 4 mps 723 mmHg 92%
07:00 0°C° 0.3 mm 4 mps 723 mmHg 93%
08:00 0°C° 0.3 mm 4 mps 722 mmHg 94%
09:00 +1°C° 0.4 mm 3 mps 722 mmHg 94%
10:00 +1°C° 0.4 mm 3 mps 722 mmHg 94%
11:00 +2°C° 0.4 mm 2 mps 721 mmHg 94%
12:00 +2°C° 0.1 mm 2 mps 721 mmHg 94%
13:00 +2°C° 0.1 mm 2 mps 721 mmHg 94%
14:00 +2°C° 0.1 mm 2 mps 721 mmHg 94%
15:00 0°C° 0.1 mm 4 mps 722 mmHg 94%
16:00 -1°C° 0.1 mm 5 mps 722 mmHg 93%
17:00 -3°C° 0.1 mm 6 mps 723 mmHg 93%
18:00 -3°C° 0.2 mm 7 mps 723 mmHg 92%
19:00 -3°C° 0.2 mm 7 mps 724 mmHg 92%
20:00 -3°C° 0.2 mm 7 mps 724 mmHg 92%
21:00 -3°C° 0.2 mm 7 mps 724 mmHg 92%
22:00 -3°C° 0.2 mm 7 mps 725 mmHg 92%
23:00 -4°C° 0.2 mm 7 mps 725 mmHg 92%

Tomorrow, 26 January, Tuesday

Time Temperature Precipitation Wind Pressure Humidity
00:00 -5°C° 0.3 mm 8 mps 726 mmHg 92%
01:00 -4°C° 0.3 mm 8 mps 726 mmHg 92%
02:00 -4°C° 0.3 mm 8 mps 727 mmHg 92%
03:00 -5°C° 0.3 mm 8 mps 727 mmHg 92%
04:00 -5°C° 0.3 mm 8 mps 727 mmHg 91%
05:00 -5°C° 0.3 mm 8 mps 728 mmHg 91%
06:00 -5°C° 0 mm 8 mps 728 mmHg 89%
07:00 -4°C° 0 mm 7 mps 729 mmHg 88%
08:00 -4°C° 0 mm 7 mps 730 mmHg 86%
09:00 -4°C° 0 mm 7 mps 730 mmHg 84%
10:00 -4°C° 0 mm 7 mps 731 mmHg 82%
11:00 -3°C° 0 mm 7 mps 732 mmHg 80%
12:00 -3°C° 0 mm 7 mps 732 mmHg 79%
13:00 -3°C° 0 mm 7 mps 732 mmHg 78%
14:00 -2°C° 0 mm 7 mps 733 mmHg 77%
15:00 -3°C° 0 mm 6 mps 733 mmHg 78%
16:00 -2°C° 0 mm 5 mps 733 mmHg 79%
17:00 -4°C° 0 mm 5 mps 733 mmHg 80%
18:00 -3°C° 0 mm 4 mps 734 mmHg 82%
19:00 -4°C° 0 mm 4 mps 734 mmHg 84%
20:00 -4°C° 0 mm 4 mps 734 mmHg 86%
21:00 -4°C° 0 mm 4 mps 734 mmHg 87%
22:00 -4°C° 0 mm 4 mps 735 mmHg 88%
23:00 -4°C° 0 mm 4 mps 735 mmHg 88%

Day after tomorrow, 27 January, Wednesday

Time Temperature Precipitation Wind Pressure Humidity
00:00 -5°C° 0 mm 3 mps 735 mmHg 88%
01:00 -5°C° 0 mm 3 mps 735 mmHg 89%
02:00 -5°C° 0 mm 3 mps 735 mmHg 89%
03:00 -5°C° 0 mm 3 mps 735 mmHg 89%
04:00 -5°C° 0 mm 3 mps 735 mmHg 89%
05:00 -5°C° 0 mm 3 mps 735 mmHg 90%
06:00 -6°C° 0 mm 3 mps 735 mmHg 90%
07:00 -7°C° 0 mm 4 mps 735 mmHg 90%
08:00 -7°C° 0 mm 4 mps 735 mmHg 91%
09:00 -5°C° 0 mm 4 mps 735 mmHg 89%
10:00 -4°C° 0 mm 4 mps 735 mmHg 86%
11:00 -4°C° 0 mm 4 mps 735 mmHg 84%
12:00 -4°C° 0.1 mm 4 mps 735 mmHg 85%
13:00 -3°C° 0.1 mm 4 mps 735 mmHg 86%
14:00 -3°C° 0.1 mm 4 mps 735 mmHg 86%
15:00 -3°C° 0.1 mm 4 mps 734 mmHg 88%
16:00 -3°C° 0.1 mm 4 mps 734 mmHg 91%
17:00 -3°C° 0.1 mm 4 mps 734 mmHg 93%
18:00 -3°C° 0.1 mm 4 mps 734 mmHg 92%
19:00 -4°C° 0.1 mm 5 mps 734 mmHg 91%
20:00 -5°C° 0.1 mm 5 mps 734 mmHg 91%
21:00 -5°C° 0.1 mm 5 mps 734 mmHg 92%
22:00 -4°C° 0.1 mm 4 mps 734 mmHg 93%
23:00 -4°C° 0.1 mm 4 mps 734 mmHg 94%

28 January, Thursday

Time Temperature Precipitation Wind Pressure Humidity
00:00 -4°C° 0.2 mm 4 mps 734 mmHg 94%
01:00 -4°C° 0.2 mm 4 mps 734 mmHg 94%
02:00 -5°C° 0.2 mm 5 mps 734 mmHg 94%
03:00 -4°C° 0.1 mm 4 mps 734 mmHg 94%
04:00 -4°C° 0.1 mm 4 mps 734 mmHg 94%
05:00 -5°C° 0.1 mm 4 mps 734 mmHg 93%
06:00 -5°C° 0.1 mm 4 mps 734 mmHg 92%
07:00 -5°C° 0.1 mm 4 mps 734 mmHg 91%
08:00 -5°C° 0.1 mm 4 mps 734 mmHg 90%
09:00 -4°C° 0 mm 4 mps 734 mmHg 89%
10:00 -4°C° 0 mm 3 mps 734 mmHg 87%
11:00 -4°C° 0 mm 3 mps 734 mmHg 86%
12:00 -2°C° 0 mm 3 mps 733 mmHg 84%
13:00 -2°C° 0 mm 3 mps 733 mmHg 82%
14:00 -1°C° 0 mm 3 mps 733 mmHg 80%
15:00 -2°C° 0 mm 3 mps 733 mmHg 82%
16:00 -2°C° 0 mm 2 mps 733 mmHg 85%
17:00 -1°C° 0 mm 1 mps 733 mmHg 87%
18:00 -1°C° 0 mm 1 mps 733 mmHg 87%
19:00 -2°C° 0 mm 1 mps 733 mmHg 88%
20:00 -2°C° 0 mm 1 mps 733 mmHg 88%
21:00 -2°C° 0 mm 1 mps 733 mmHg 88%
22:00 -2°C° 0 mm 1 mps 733 mmHg 87%
23:00 -3°C° 0 mm 1 mps 733 mmHg 87%

29 January, Friday

Time Temperature Precipitation Wind Pressure Humidity
00:00 -3°C° 0 mm 1 mps 733 mmHg 86%
01:00 -3°C° 0 mm 1 mps 733 mmHg 85%
02:00 -3°C° 0 mm 1 mps 733 mmHg 84%
03:00 -3°C° 0 mm 1 mps 733 mmHg 84%
04:00 -5°C° 0 mm 2 mps 732 mmHg 83%
05:00 -5°C° 0 mm 2 mps 732 mmHg 83%
06:00 -4°C° 0 mm 2 mps 732 mmHg 82%
07:00 -4°C° 0 mm 2 mps 732 mmHg 81%
08:00 -5°C° 0 mm 3 mps 732 mmHg 80%
09:00 -4°C° 0 mm 3 mps 731 mmHg 79%
10:00 -2°C° 0 mm 3 mps 731 mmHg 78%
11:00 -1°C° 0 mm 3 mps 731 mmHg 77%
12:00 -1°C° 0 mm 4 mps 730 mmHg 76%
13:00 0°C° 0 mm 4 mps 730 mmHg 76%
14:00 0°C° 0 mm 4 mps 729 mmHg 76%
15:00 0°C° 0 mm 4 mps 729 mmHg 76%
16:00 0°C° 0 mm 4 mps 728 mmHg 77%
17:00 0°C° 0 mm 4 mps 728 mmHg 77%
18:00 +1°C° 0.1 mm 4 mps 727 mmHg 79%
19:00 +1°C° 0.1 mm 5 mps 727 mmHg 81%
20:00 +1°C° 0.1 mm 5 mps 726 mmHg 83%
21:00 +2°C° 0.2 mm 6 mps 726 mmHg 82%
22:00 +2°C° 0.2 mm 7 mps 726 mmHg 81%
23:00 +2°C° 0.2 mm 7 mps 725 mmHg 80%

30 January, Saturday

Time Temperature Precipitation Wind Pressure Humidity
00:00 +2°C° 0 mm 7 mps 725 mmHg 81%
01:00 +2°C° 0 mm 7 mps 725 mmHg 82%
02:00 +2°C° 0 mm 7 mps 725 mmHg 82%
03:00 +2°C° 0 mm 7 mps 725 mmHg 82%
04:00 +2°C° 0 mm 7 mps 725 mmHg 82%
05:00 +2°C° 0 mm 6 mps 725 mmHg 82%
06:00 +1°C° 0 mm 6 mps 725 mmHg 83%
07:00 +1°C° 0 mm 6 mps 725 mmHg 83%
08:00 +1°C° 0 mm 6 mps 725 mmHg 84%
09:00 +1°C° 0.1 mm 6 mps 725 mmHg 85%
10:00 +2°C° 0.1 mm 6 mps 726 mmHg 85%
11:00 +2°C° 0.1 mm 7 mps 726 mmHg 85%
12:00 0°C° 0.1 mm 7 mps 726 mmHg 86%
13:00 0°C° 0.1 mm 7 mps 726 mmHg 87%
14:00 -1°C° 0.1 mm 7 mps 727 mmHg 87%
15:00 -2°C° 0 mm 6 mps 727 mmHg 85%
16:00 -2°C° 0 mm 6 mps 728 mmHg 83%
17:00 -2°C° 0 mm 5 mps 728 mmHg 81%
18:00 -2°C° 0 mm 5 mps 729 mmHg 81%
19:00 -3°C° 0 mm 4 mps 729 mmHg 82%
20:00 -3°C° 0 mm 4 mps 730 mmHg 82%
21:00 -4°C° 0 mm 4 mps 730 mmHg 83%
22:00 -4°C° 0 mm 3 mps 731 mmHg 84%
23:00 -5°C° 0 mm 3 mps 731 mmHg 85%
Show more